OPS 6063

导读 | 豆包AI

OPS 6063是美国于1973年3月6日08:00发射的军用侦察卫星,隶属美国国家侦察局保密项目体系。作为冷战时期美军天基侦察体系的组成部分,OPS编号是美国保密军事卫星任务的通用命名前缀。该卫星依托当时成熟的运载火箭技术入轨,承担对地光学成像或电子侦察任务,服务于美国冷战战略情报收集需求,在冷战太空对抗背景下,为美国获取战略情报提供了天基支撑,是70年代美国军事航天发展的重要见证。

Basic Information
目录编号:
6380
目录名称:
OPS 6063
国际标识:
1973-013A
轨道中心:
EARTH
卫星名称:
OPS 6063
卫星全名:
--
卫星状态:
在轨 (已飞行19356 天)
发射日期:
1973-03-06 UTC
国别 :
美国 (US)
星等 :
--
Orbit Information
数据来源 国际轨道数据 AOE轨道数据
星历时间 2026-03-04T10:25:09+0800
7小时前
查看轨道信息
2026-03-04T07:00:00+0800
10小时前
查看轨道信息
半长轴 42163.887km 42163.831km
偏心率 0.0012429 0.0012426
轨道倾角 0.609° 0.609°
近地点辐角 286.329° 286.531°
升交点赤经 250.572° 250.487°
平近点角 97.207° 45.659°
近地点 35733.344km 35733.301km
远地点 35838.156km 35838.087km
周期 1436.054分钟 1436.051分钟
每日圈数 1.002748 1.00275
Detailed Information
使用方式:
暂无
2D Orbit Map
3D Orbit Map
Orbit Altitude Analysis Chart
Orbit Inclination Analysis Chart
Orbit Comprehensive Analysis Chart
View Comprehensive Chart